Time,TemperatureF,DewpointF,PressureIn,WindDirection,WindDirectionDegrees,WindSpeedMPH,WindSpeedGustMPH,Humidity,HourlyPrecipIn,Conditions,Clouds,dailyrainin,SoftwareType,DateUTC
2013-09-23 00:02:00,48.0,42.4,29.96,East,100,0.0,0.0,81,0.00,,,0.00,meteohub,2013-09-23 04:02:00,
2013-09-23 00:07:00,48.0,42.4,29.96,East,100,0.0,0.0,81,0.00,,,0.00,meteohub,2013-09-23 04:07:00,
2013-09-23 00:12:00,47.8,42.3,29.96,East,100,0.0,0.0,81,0.00,,,0.00,meteohub,2013-09-23 04:12:00,
2013-09-23 00:17:00,47.8,42.3,29.96,East,100,0.0,0.0,81,0.00,,,0.00,meteohub,2013-09-23 04:17:00,
2013-09-23 00:22:00,47.7,42.1,29.96,East,100,0.0,0.0,81,0.00,,,0.00,meteohub,2013-09-23 04:22:00,
2013-09-23 00:27:00,47.5,41.9,29.96,East,100,0.0,0.0,81,0.00,,,0.00,meteohub,2013-09-23 04:27:00,
2013-09-23 00:32:00,47.5,41.9,29.96,East,100,0.0,0.0,81,0.00,,,0.00,meteohub,2013-09-23 04:32:00,
2013-09-23 00:37:00,47.5,41.9,29.96,East,100,0.0,0.0,81,0.00,,,0.00,meteohub,2013-09-23 04:37:00,
2013-09-23 00:42:00,47.5,42.3,29.96,East,100,0.0,0.0,82,0.00,,,0.00,meteohub,2013-09-23 04:42:00,
2013-09-23 00:47:00,47.5,42.3,29.96,East,100,0.0,0.0,82,0.00,,,0.00,meteohub,2013-09-23 04:47:00,
2013-09-23 00:52:00,47.5,42.3,29.96,East,100,0.0,0.0,82,0.00,,,0.00,meteohub,2013-09-23 04:52:00,
2013-09-23 00:57:00,47.5,42.6,29.96,East,100,0.0,0.0,83,0.00,,,0.00,meteohub,2013-09-23 04:57:00,
2013-09-23 01:02:00,47.5,42.6,29.96,East,100,0.0,0.0,83,0.00,,,0.00,meteohub,2013-09-23 05:02:00,
2013-09-23 01:07:00,47.5,43.0,29.96,East,100,0.0,0.0,84,0.00,,,0.00,meteohub,2013-09-23 05:07:00,
2013-09-23 01:12:00,47.5,43.0,29.96,East,100,0.0,0.0,84,0.00,,,0.00,meteohub,2013-09-23 05:12:00,
2013-09-23 01:17:00,47.3,42.8,29.96,East,100,0.0,0.0,84,0.00,,,0.00,meteohub,2013-09-23 05:17:00,
2013-09-23 01:22:00,47.3,42.8,29.96,East,100,0.0,0.0,84,0.00,,,0.00,meteohub,2013-09-23 05:22:00,
2013-09-23 01:27:00,47.3,42.8,29.96,East,100,0.0,0.0,84,0.00,,,0.00,meteohub,2013-09-23 05:27:00,
2013-09-23 01:32:00,47.3,43.0,29.96,East,100,0.0,0.0,85,0.00,,,0.00,meteohub,2013-09-23 05:32:00,
2013-09-23 01:37:00,47.3,43.0,29.96,East,100,0.0,0.0,85,0.00,,,0.00,meteohub,2013-09-23 05:37:00,
2013-09-23 01:42:00,47.1,42.8,29.96,East,100,0.0,0.0,85,0.00,,,0.00,meteohub,2013-09-23 05:42:00,
2013-09-23 01:47:00,47.3,43.0,29.96,East,100,0.0,0.0,85,0.00,,,0.00,meteohub,2013-09-23 05:47:00,
2013-09-23 01:52:00,47.3,43.3,29.96,East,100,0.0,0.0,86,0.00,,,0.00,meteohub,2013-09-23 05:52:00,
2013-09-23 02:02:00,47.3,43.3,29.99,East,100,0.0,0.0,86,0.00,,,0.00,meteohub,2013-09-23 06:02:00,
2013-09-23 02:07:00,46.9,43.0,29.99,NNW,348,0.0,0.0,86,0.00,,,0.00,meteohub,2013-09-23 06:07:00,
2013-09-23 02:12:00,46.9,43.0,29.96,North,10,0.0,0.0,86,0.00,,,0.00,meteohub,2013-09-23 06:12:00,
2013-09-23 02:17:00,46.9,43.0,29.96,WNW,302,0.0,0.0,86,0.00,,,0.00,meteohub,2013-09-23 06:17:00,
2013-09-23 02:22:00,46.8,42.8,29.96,North,10,0.0,0.0,86,0.00,,,0.00,meteohub,2013-09-23 06:22:00,
2013-09-23 02:27:00,46.8,42.8,29.99,NW,325,0.0,0.0,86,0.00,,,0.00,meteohub,2013-09-23 06:27:00,
2013-09-23 02:32:00,46.6,42.6,29.99,North,10,0.0,3.0,86,0.00,,,0.00,meteohub,2013-09-23 06:32:00,
2013-09-23 02:37:00,46.4,42.4,29.99,NW,325,0.0,3.0,86,0.00,,,0.00,meteohub,2013-09-23 06:37:00,
2013-09-23 02:42:00,46.4,42.4,29.99,NNW,348,0.0,3.0,86,0.00,,,0.00,meteohub,2013-09-23 06:42:00,
2013-09-23 02:47:00,46.4,42.4,29.99,NNW,348,0.0,0.0,86,0.00,,,0.00,meteohub,2013-09-23 06:47:00,
2013-09-23 02:52:00,46.2,42.6,29.99,WNW,302,0.0,0.0,87,0.00,,,0.00,meteohub,2013-09-23 06:52:00,
2013-09-23 02:57:00,46.4,42.8,29.99,NNW,348,0.0,0.0,87,0.00,,,0.00,meteohub,2013-09-23 06:57:00,
2013-09-23 03:02:00,46.2,42.6,29.99,NNW,348,0.0,0.0,87,0.00,,,0.00,meteohub,2013-09-23 07:02:00,
2013-09-23 03:07:00,46.2,42.6,29.99,NNW,348,0.0,0.0,87,0.00,,,0.00,meteohub,2013-09-23 07:07:00,
2013-09-23 03:12:00,46.0,42.4,29.99,NNW,348,0.0,0.0,87,0.00,,,0.00,meteohub,2013-09-23 07:12:00,
2013-09-23 03:17:00,45.9,42.3,29.99,North,10,0.0,0.0,87,0.00,,,0.00,meteohub,2013-09-23 07:17:00,
2013-09-23 03:22:00,46.0,42.6,29.99,NW,325,0.0,0.0,88,0.00,,,0.00,meteohub,2013-09-23 07:22:00,
2013-09-23 03:27:00,45.9,42.4,29.96,NNW,348,0.0,0.0,88,0.00,,,0.00,meteohub,2013-09-23 07:27:00,
2013-09-23 03:32:00,45.7,42.1,29.96,North,10,0.0,0.0,87,0.00,,,0.00,meteohub,2013-09-23 07:32:00,
2013-09-23 03:37:00,45.5,41.9,29.96,North,10,0.0,0.0,87,0.00,,,0.00,meteohub,2013-09-23 07:37:00,
2013-09-23 03:42:00,45.3,41.7,29.99,North,10,0.0,0.0,87,0.00,,,0.00,meteohub,2013-09-23 07:42:00,
2013-09-23 03:47:00,45.3,41.7,29.99,NW,325,0.0,0.0,87,0.00,,,0.00,meteohub,2013-09-23 07:47:00,
2013-09-23 03:52:00,45.3,41.7,29.99,NW,325,0.0,0.0,87,0.00,,,0.00,meteohub,2013-09-23 07:52:00,
2013-09-23 03:57:00,45.3,41.9,29.99,North,10,0.0,0.0,88,0.00,,,0.00,meteohub,2013-09-23 07:57:00,
2013-09-23 04:02:00,45.5,42.1,29.99,North,10,0.0,0.0,88,0.00,,,0.00,meteohub,2013-09-23 08:02:00,
2013-09-23 04:07:00,45.5,42.1,29.99,NW,325,0.0,0.0,88,0.00,,,0.00,meteohub,2013-09-23 08:07:00,
2013-09-23 04:12:00,45.5,42.1,29.96,NNW,348,0.0,0.0,88,0.00,,,0.00,meteohub,2013-09-23 08:12:00,
2013-09-23 04:17:00,45.5,42.4,29.96,NNW,348,0.0,0.0,89,0.00,,,0.00,meteohub,2013-09-23 08:17:00,
2013-09-23 04:22:00,45.3,41.9,29.96,North,10,0.0,0.0,88,0.00,,,0.00,meteohub,2013-09-23 08:22:00,
2013-09-23 04:27:00,45.3,42.3,29.99,NNW,348,0.0,0.0,89,0.00,,,0.00,meteohub,2013-09-23 08:27:00,
2013-09-23 04:32:00,45.1,42.1,29.99,North,10,0.0,0.0,89,0.00,,,0.00,meteohub,2013-09-23 08:32:00,
2013-09-23 04:37:00,45.1,42.1,29.99,NNW,348,0.0,0.0,89,0.00,,,0.00,meteohub,2013-09-23 08:37:00,
2013-09-23 04:42:00,45.1,42.1,29.99,North,10,0.0,0.0,89,0.00,,,0.00,meteohub,2013-09-23 08:42:00,
2013-09-23 04:47:00,45.1,42.4,29.99,NNW,348,0.0,0.0,90,0.00,,,0.00,meteohub,2013-09-23 08:47:00,
2013-09-23 04:52:00,45.0,41.9,29.99,NW,325,0.0,0.0,89,0.00,,,0.00,meteohub,2013-09-23 08:52:00,
2013-09-23 04:57:00,45.0,42.3,29.99,North,10,0.0,0.0,90,0.00,,,0.00,meteohub,2013-09-23 08:57:00,
2013-09-23 05:02:00,45.0,42.3,29.99,NNW,348,0.0,0.0,90,0.00,,,0.00,meteohub,2013-09-23 09:02:00,
2013-09-23 05:07:00,45.0,42.3,29.99,NNW,348,0.0,0.0,90,0.00,,,0.00,meteohub,2013-09-23 09:07:00,
2013-09-23 05:12:00,44.8,42.1,29.96,NNW,348,0.0,0.0,90,0.00,,,0.00,meteohub,2013-09-23 09:12:00,
2013-09-23 05:17:00,44.8,42.1,29.96,NNW,348,0.0,0.0,90,0.00,,,0.00,meteohub,2013-09-23 09:17:00,
2013-09-23 05:22:00,44.6,41.9,29.96,NNW,348,0.0,0.0,90,0.00,,,0.00,meteohub,2013-09-23 09:22:00,
2013-09-23 05:27:00,44.8,42.1,29.99,NNW,348,0.0,0.0,90,0.00,,,0.00,meteohub,2013-09-23 09:27:00,
2013-09-23 05:32:00,44.8,42.3,29.99,NW,325,0.0,0.0,91,0.00,,,0.00,meteohub,2013-09-23 09:32:00,
2013-09-23 05:37:00,44.8,42.3,29.99,North,10,0.0,0.0,91,0.00,,,0.00,meteohub,2013-09-23 09:37:00,
2013-09-23 05:42:00,44.8,42.3,29.96,NW,325,0.0,0.0,91,0.00,,,0.00,meteohub,2013-09-23 09:42:00,
2013-09-23 05:47:00,44.8,42.3,29.96,NNW,348,0.0,0.0,91,0.00,,,0.00,meteohub,2013-09-23 09:47:00,
2013-09-23 05:52:00,44.8,42.6,29.96,North,10,0.0,0.0,92,0.00,,,0.00,meteohub,2013-09-23 09:52:00,
2013-09-23 05:57:00,44.8,42.6,29.96,North,10,0.0,0.0,92,0.00,,,0.00,meteohub,2013-09-23 09:57:00,
2013-09-23 06:02:00,44.8,42.6,29.96,WNW,302,0.0,0.0,92,0.00,,,0.00,meteohub,2013-09-23 10:02:00,
2013-09-23 06:07:00,44.6,42.4,29.96,WNW,302,0.0,0.0,92,0.00,,,0.00,meteohub,2013-09-23 10:07:00,
2013-09-23 06:12:00,44.4,42.3,29.99,North,10,0.0,0.0,92,0.00,,,0.00,meteohub,2013-09-23 10:12:00,
2013-09-23 06:17:00,44.4,42.3,29.99,North,10,3.0,5.0,92,0.00,,,0.00,meteohub,2013-09-23 10:17:00,
2013-09-23 06:22:00,44.4,42.3,29.99,NNE,32,0.0,5.0,92,0.00,,,0.00,meteohub,2013-09-23 10:22:00,
2013-09-23 06:27:00,44.2,42.1,29.99,NNW,348,0.0,3.0,92,0.00,,,0.00,meteohub,2013-09-23 10:27:00,
2013-09-23 06:32:00,44.2,42.1,29.99,NW,325,0.0,3.0,92,0.00,,,0.00,meteohub,2013-09-23 10:32:00,
2013-09-23 06:37:00,44.1,41.9,29.99,North,10,0.0,4.0,92,0.00,,,0.00,meteohub,2013-09-23 10:37:00,
2013-09-23 06:42:00,44.1,41.9,29.99,NNW,348,0.0,4.0,92,0.00,,,0.00,meteohub,2013-09-23 10:42:00,
2013-09-23 06:47:00,43.7,41.5,29.99,North,10,0.0,5.0,92,0.00,,,0.00,meteohub,2013-09-23 10:47:00,
2013-09-23 06:52:00,43.7,41.5,29.99,NNW,348,2.0,5.0,92,0.00,,,0.00,meteohub,2013-09-23 10:52:00,
2013-09-23 06:57:00,43.7,41.5,29.99,NNW,348,3.0,5.0,92,0.00,,,0.00,meteohub,2013-09-23 10:57:00,
2013-09-23 07:02:00,43.7,41.5,30.01,North,10,0.0,4.0,92,0.00,,,0.00,meteohub,2013-09-23 11:02:00,
2013-09-23 07:07:00,43.7,41.5,30.01,NNW,348,0.0,4.0,92,0.00,,,0.00,meteohub,2013-09-23 11:07:00,
2013-09-23 07:12:00,43.7,41.5,30.01,NW,325,0.0,3.0,92,0.00,,,0.00,meteohub,2013-09-23 11:12:00,
2013-09-23 07:17:00,43.5,41.4,30.01,NNW,348,0.0,0.0,92,0.00,,,0.00,meteohub,2013-09-23 11:17:00,
2013-09-23 07:22:00,43.5,41.4,30.01,NNW,348,0.0,0.0,92,0.00,,,0.00,meteohub,2013-09-23 11:22:00,
2013-09-23 07:27:00,43.5,41.4,30.01,ESE,122,0.0,0.0,92,0.00,,,0.00,meteohub,2013-09-23 11:27:00,
2013-09-23 07:32:00,43.7,41.5,30.01,North,10,0.0,0.0,92,0.00,,,0.00,meteohub,2013-09-23 11:32:00,
2013-09-23 07:37:00,43.7,41.5,30.01,WNW,302,0.0,0.0,92,0.00,,,0.00,meteohub,2013-09-23 11:37:00,
2013-09-23 07:42:00,43.7,41.9,30.01,North,10,0.0,0.0,93,0.00,,,0.00,meteohub,2013-09-23 11:42:00,
2013-09-23 07:47:00,43.7,41.9,30.01,NNW,348,0.0,0.0,93,0.00,,,0.00,meteohub,2013-09-23 11:47:00,
2013-09-23 07:57:00,43.7,41.9,30.04,NW,325,0.0,3.0,93,0.00,,,0.00,meteohub,2013-09-23 11:57:00,
2013-09-23 08:02:00,43.7,41.9,30.04,WSW,258,0.0,3.0,93,0.00,,,0.00,meteohub,2013-09-23 12:02:00,
2013-09-23 08:07:00,44.1,42.3,30.04,NNW,348,0.0,0.0,93,0.00,,,0.00,meteohub,2013-09-23 12:07:00,
2013-09-23 08:12:00,44.1,42.3,30.04,North,10,0.0,0.0,93,0.00,,,0.00,meteohub,2013-09-23 12:12:00,
2013-09-23 08:17:00,44.2,42.6,30.04,SSW,212,0.0,0.0,94,0.00,,,0.00,meteohub,2013-09-23 12:17:00,
2013-09-23 08:22:00,44.2,42.6,30.04,North,10,0.0,0.0,94,0.00,,,0.00,meteohub,2013-09-23 12:22:00,
2013-09-23 08:27:00,44.2,42.6,30.01,NNE,32,0.0,0.0,94,0.00,,,0.00,meteohub,2013-09-23 12:27:00,
2013-09-23 08:32:00,44.4,42.8,30.01,WNW,302,0.0,0.0,94,0.00,,,0.00,meteohub,2013-09-23 12:32:00,
2013-09-23 08:37:00,44.6,43.0,30.01,NNE,32,0.0,0.0,94,0.00,,,0.00,meteohub,2013-09-23 12:37:00,
2013-09-23 08:42:00,44.4,42.8,30.04,NNW,348,0.0,3.0,94,0.00,,,0.00,meteohub,2013-09-23 12:42:00,
2013-09-23 08:47:00,44.8,43.2,30.04,NNW,348,0.0,3.0,94,0.00,,,0.00,meteohub,2013-09-23 12:47:00,
2013-09-23 08:52:00,44.6,43.0,30.04,NNW,348,0.0,3.0,94,0.00,,,0.00,meteohub,2013-09-23 12:52:00,
2013-09-23 08:57:00,44.6,43.0,30.01,WSW,258,0.0,5.0,94,0.00,,,0.00,meteohub,2013-09-23 12:57:00,
2013-09-23 09:02:00,44.8,43.2,30.01,NW,325,0.0,5.0,94,0.00,,,0.00,meteohub,2013-09-23 13:02:00,
2013-09-23 09:07:00,44.8,43.2,30.01,NNW,348,0.0,3.0,94,0.00,,,0.00,meteohub,2013-09-23 13:07:00,
2013-09-23 09:12:00,45.0,43.3,30.01,WNW,302,0.0,5.0,94,0.00,,,0.00,meteohub,2013-09-23 13:12:00,
2013-09-23 09:17:00,45.1,43.5,30.01,NW,325,5.0,6.0,94,0.00,,,0.00,meteohub,2013-09-23 13:17:00,
2013-09-23 09:22:00,45.1,43.5,30.01,NW,325,4.0,6.0,94,0.00,,,0.00,meteohub,2013-09-23 13:22:00,
2013-09-23 09:27:00,45.3,43.7,30.04,NNW,348,5.0,6.0,94,0.00,,,0.00,meteohub,2013-09-23 13:27:00,
2013-09-23 09:32:00,45.9,44.6,30.04,WNW,302,0.0,8.0,95,0.00,,,0.00,meteohub,2013-09-23 13:32:00,
2013-09-23 09:37:00,45.9,44.6,30.04,NNW,348,0.0,8.0,95,0.00,,,0.00,meteohub,2013-09-23 13:37:00,
2013-09-23 09:42:00,46.2,44.8,30.04,WNW,302,0.0,5.0,95,0.00,,,0.00,meteohub,2013-09-23 13:42:00,
2013-09-23 09:47:00,46.2,44.8,30.04,NNW,348,0.0,5.0,95,0.00,,,0.00,meteohub,2013-09-23 13:47:00,
2013-09-23 09:57:00,46.8,45.3,30.04,SSW,212,0.0,4.0,95,0.00,,,0.00,meteohub,2013-09-23 13:57:00,
2013-09-23 10:02:00,47.3,45.9,30.04,NW,325,3.0,3.0,95,0.00,,,0.00,meteohub,2013-09-23 14:02:00,
2013-09-23 10:07:00,47.1,45.7,30.04,WNW,302,2.0,3.0,95,0.00,,,0.00,meteohub,2013-09-23 14:07:00,
2013-09-23 10:12:00,47.3,45.9,30.01,WNW,302,0.0,5.0,95,0.00,,,0.00,meteohub,2013-09-23 14:12:00,
2013-09-23 10:17:00,47.7,46.2,30.01,North,10,0.0,6.0,95,0.00,,,0.00,meteohub,2013-09-23 14:17:00,
2013-09-23 10:22:00,47.8,46.4,30.01,NNW,348,0.0,6.0,95,0.00,,,0.00,meteohub,2013-09-23 14:22:00,
2013-09-23 10:27:00,48.2,46.6,30.01,WNW,302,0.0,4.0,94,0.00,,,0.00,meteohub,2013-09-23 14:27:00,
2013-09-23 10:32:00,48.7,47.3,30.01,NE,55,0.0,4.0,95,0.00,,,0.00,meteohub,2013-09-23 14:32:00,
2013-09-23 10:37:00,49.5,48.0,30.01,SSE,168,0.0,2.0,95,0.00,,,0.00,meteohub,2013-09-23 14:37:00,
2013-09-23 10:42:00,49.8,48.7,30.04,North,10,0.0,2.0,96,0.00,,,0.00,meteohub,2013-09-23 14:42:00,
2013-09-23 10:47:00,50.2,49.1,30.04,NNE,32,0.0,3.0,96,0.00,,,0.00,meteohub,2013-09-23 14:47:00,
2013-09-23 10:52:00,50.5,49.5,30.04,NW,325,0.0,3.0,96,0.00,,,0.00,meteohub,2013-09-23 14:52:00,
2013-09-23 10:57:00,51.3,49.8,30.04,NNE,32,3.0,4.0,95,0.00,,,0.00,meteohub,2013-09-23 14:57:00,
2013-09-23 11:02:00,52.0,50.4,30.04,North,10,0.0,6.0,94,0.00,,,0.00,meteohub,2013-09-23 15:02:00,
2013-09-23 11:07:00,52.3,50.4,30.04,NNW,348,0.0,6.0,93,0.00,,,0.00,meteohub,2013-09-23 15:07:00,
2013-09-23 11:12:00,53.1,51.1,30.04,South,190,0.0,6.0,93,0.00,,,0.00,meteohub,2013-09-23 15:12:00,
2013-09-23 11:17:00,53.4,51.4,30.04,West,280,0.0,6.0,93,0.00,,,0.00,meteohub,2013-09-23 15:17:00,
2013-09-23 11:27:00,54.7,52.2,30.04,WNW,302,3.0,5.0,91,0.00,,,0.00,meteohub,2013-09-23 15:27:00,
2013-09-23 11:32:00,55.2,51.8,30.04,NNW,348,5.0,5.0,88,0.00,,,0.00,meteohub,2013-09-23 15:32:00,
2013-09-23 11:37:00,55.8,52.0,30.04,SW,235,5.0,6.0,87,0.00,,,0.00,meteohub,2013-09-23 15:37:00,
2013-09-23 11:42:00,56.3,53.1,30.04,SSE,168,4.0,6.0,89,0.00,,,0.00,meteohub,2013-09-23 15:42:00,
2013-09-23 11:47:00,56.8,53.1,30.04,ENE,78,4.0,7.0,87,0.00,,,0.00,meteohub,2013-09-23 15:47:00,
2013-09-23 11:52:00,57.0,52.5,30.04,SW,235,3.0,7.0,85,0.00,,,0.00,meteohub,2013-09-23 15:52:00,
2013-09-23 11:57:00,57.6,52.5,30.04,South,190,6.0,7.0,83,0.00,,,0.00,meteohub,2013-09-23 15:57:00,
2013-09-23 12:02:00,57.7,52.3,30.07,SW,235,3.0,8.0,82,0.00,,,0.00,meteohub,2013-09-23 16:02:00,
2013-09-23 12:07:00,58.3,52.2,30.07,WSW,258,5.0,8.0,80,0.00,,,0.00,meteohub,2013-09-23 16:07:00,
2013-09-23 12:12:00,58.6,50.4,30.04,NW,325,7.0,8.0,74,0.00,,,0.00,meteohub,2013-09-23 16:12:00,
2013-09-23 12:17:00,58.8,49.5,30.04,NNW,348,3.0,13.0,71,0.00,,,0.00,meteohub,2013-09-23 16:17:00,
2013-09-23 12:22:00,59.2,49.5,30.04,NNW,348,13.0,24.0,70,0.00,,,0.00,meteohub,2013-09-23 16:22:00,
2013-09-23 12:32:00,60.3,48.9,30.04,NW,325,12.0,17.0,66,0.00,,,0.00,meteohub,2013-09-23 16:32:00,
2013-09-23 12:37:00,60.4,48.2,30.04,ENE,78,10.0,17.0,64,0.00,,,0.00,meteohub,2013-09-23 16:37:00,
2013-09-23 12:42:00,60.8,47.7,30.04,NNW,348,7.0,21.0,62,0.00,,,0.00,meteohub,2013-09-23 16:42:00,
2013-09-23 12:47:00,61.2,49.3,30.04,WNW,302,11.0,21.0,65,0.00,,,0.00,meteohub,2013-09-23 16:47:00,
2013-09-23 13:07:00,62.6,50.7,30.01,SSW,212,4.0,9.0,65,0.00,,,0.00,meteohub,2013-09-23 17:07:00,
2013-09-23 13:12:00,62.8,49.1,30.01,NE,55,2.0,11.0,61,0.00,,,0.00,meteohub,2013-09-23 17:12:00,
2013-09-23 13:17:00,63.1,51.3,30.01,WSW,258,0.0,11.0,65,0.00,,,0.00,meteohub,2013-09-23 17:17:00,
2013-09-23 13:22:00,63.1,48.2,30.01,NW,325,5.0,11.0,58,0.00,,,0.00,meteohub,2013-09-23 17:22:00,
2013-09-23 13:32:00,64.0,50.7,30.01,SE,145,5.0,12.0,62,0.00,,,0.00,meteohub,2013-09-23 17:32:00,
2013-09-23 13:37:00,64.2,49.6,30.01,NNE,32,0.0,12.0,59,0.00,,,0.00,meteohub,2013-09-23 17:37:00,
2013-09-23 13:42:00,64.4,49.8,29.99,WNW,302,8.0,9.0,59,0.00,,,0.00,meteohub,2013-09-23 17:42:00,
2013-09-23 13:47:00,64.2,48.7,29.99,NNW,348,8.0,11.0,57,0.00,,,0.00,meteohub,2013-09-23 17:47:00,
2013-09-23 13:57:00,64.8,49.1,29.99,SSE,168,5.0,12.0,57,0.00,,,0.00,meteohub,2013-09-23 17:57:00,
2013-09-23 14:02:00,65.5,49.8,29.99,SE,145,5.0,12.0,57,0.00,,,0.00,meteohub,2013-09-23 18:02:00,
2013-09-23 14:07:00,65.5,49.5,29.99,WSW,258,7.0,9.0,56,0.00,,,0.00,meteohub,2013-09-23 18:07:00,
2013-09-23 14:17:00,65.8,49.6,29.99,SSE,168,4.0,15.0,56,0.00,,,0.00,meteohub,2013-09-23 18:17:00,
2013-09-23 14:22:00,66.2,50.0,29.99,South,190,3.0,12.0,56,0.00,,,0.00,meteohub,2013-09-23 18:22:00,
2013-09-23 14:27:00,66.7,50.5,29.99,NE,55,4.0,12.0,56,0.00,,,0.00,meteohub,2013-09-23 18:27:00,
2013-09-23 14:32:00,66.9,51.6,29.99,NE,55,2.0,12.0,58,0.00,,,0.00,meteohub,2013-09-23 18:32:00,
2013-09-23 14:37:00,67.1,51.8,29.99,South,190,5.0,10.0,58,0.00,,,0.00,meteohub,2013-09-23 18:37:00,
2013-09-23 14:42:00,67.3,50.0,29.99,NW,325,2.0,7.0,54,0.00,,,0.00,meteohub,2013-09-23 18:42:00,
2013-09-23 14:47:00,67.5,50.7,29.99,SW,235,6.0,9.0,55,0.00,,,0.00,meteohub,2013-09-23 18:47:00,
2013-09-23 14:52:00,68.0,51.8,29.99,SE,145,4.0,11.0,56,0.00,,,0.00,meteohub,2013-09-23 18:52:00,
2013-09-23 15:02:00,68.2,50.4,29.96,SSW,212,3.0,11.0,53,0.00,,,0.00,meteohub,2013-09-23 19:02:00,
2013-09-23 15:07:00,68.4,50.0,29.96,NNW,348,6.0,8.0,52,0.00,,,0.00,meteohub,2013-09-23 19:07:00,
2013-09-23 15:12:00,68.5,50.7,29.96,South,190,7.0,11.0,53,0.00,,,0.00,meteohub,2013-09-23 19:12:00,
2013-09-23 15:17:00,68.5,49.6,29.96,SSE,168,6.0,11.0,51,0.00,,,0.00,meteohub,2013-09-23 19:17:00,
2013-09-23 15:22:00,68.5,48.6,29.96,East,100,5.0,7.0,49,0.00,,,0.00,meteohub,2013-09-23 19:22:00,
2013-09-23 15:27:00,68.7,49.8,29.99,North,10,7.0,11.0,51,0.00,,,0.00,meteohub,2013-09-23 19:27:00,
2013-09-23 15:32:00,69.3,50.4,29.99,NNW,348,3.0,11.0,51,0.00,,,0.00,meteohub,2013-09-23 19:32:00,
2013-09-23 15:37:00,69.3,51.4,29.99,WSW,258,2.0,8.0,53,0.00,,,0.00,meteohub,2013-09-23 19:37:00,
2013-09-23 15:42:00,69.1,50.2,29.99,South,190,3.0,7.0,51,0.00,,,0.00,meteohub,2013-09-23 19:42:00,
2013-09-23 15:47:00,69.3,49.8,29.99,South,190,0.0,9.0,50,0.00,,,0.00,meteohub,2013-09-23 19:47:00,
2013-09-23 15:52:00,69.3,48.7,29.99,SE,145,0.0,9.0,48,0.00,,,0.00,meteohub,2013-09-23 19:52:00,
2013-09-23 15:57:00,68.9,47.8,29.99,North,10,5.0,9.0,47,0.00,,,0.00,meteohub,2013-09-23 19:57:00,
2013-09-23 16:02:00,68.5,48.6,29.99,NNW,348,3.0,13.0,49,0.00,,,0.00,meteohub,2013-09-23 20:02:00,
2013-09-23 16:07:00,68.7,48.7,29.99,North,10,6.0,13.0,49,0.00,,,0.00,meteohub,2013-09-23 20:07:00,
2013-09-23 16:12:00,68.4,49.1,29.99,WNW,302,5.0,13.0,50,0.00,,,0.00,meteohub,2013-09-23 20:12:00,
2013-09-23 16:17:00,68.4,50.0,29.99,NE,55,0.0,12.0,52,0.00,,,0.00,meteohub,2013-09-23 20:17:00,
2013-09-23 16:22:00,68.4,49.5,29.99,South,190,4.0,11.0,51,0.00,,,0.00,meteohub,2013-09-23 20:22:00,
2013-09-23 16:27:00,68.5,49.6,29.99,SSW,212,4.0,11.0,51,0.00,,,0.00,meteohub,2013-09-23 20:27:00,
2013-09-23 16:32:00,68.2,50.4,29.99,ESE,122,4.0,6.0,53,0.00,,,0.00,meteohub,2013-09-23 20:32:00,
2013-09-23 16:37:00,68.2,49.8,29.99,ESE,122,2.0,9.0,52,0.00,,,0.00,meteohub,2013-09-23 20:37:00,
2013-09-23 16:42:00,68.2,50.4,29.99,SSW,212,7.0,9.0,53,0.00,,,0.00,meteohub,2013-09-23 20:42:00,
2013-09-23 16:47:00,68.0,49.8,29.99,NNW,348,2.0,8.0,52,0.00,,,0.00,meteohub,2013-09-23 20:47:00,
2013-09-23 16:52:00,67.5,49.3,29.99,NW,325,4.0,8.0,52,0.00,,,0.00,meteohub,2013-09-23 20:52:00,
2013-09-23 17:02:00,67.5,50.2,29.99,SSW,212,3.0,8.0,54,0.00,,,0.00,meteohub,2013-09-23 21:02:00,
2013-09-23 17:07:00,67.3,49.6,29.99,SSE,168,6.0,6.0,53,0.00,,,0.00,meteohub,2013-09-23 21:07:00,
2013-09-23 17:12:00,67.8,49.6,29.99,WNW,302,4.0,8.0,52,0.00,,,0.00,meteohub,2013-09-23 21:12:00,
2013-09-23 17:17:00,67.8,49.6,29.99,South,190,0.0,8.0,52,0.00,,,0.00,meteohub,2013-09-23 21:17:00,
2013-09-23 17:22:00,67.5,50.7,29.99,SSE,168,0.0,7.0,55,0.00,,,0.00,meteohub,2013-09-23 21:22:00,
2013-09-23 17:27:00,67.6,49.5,29.99,SSE,168,3.0,7.0,52,0.00,,,0.00,meteohub,2013-09-23 21:27:00,
2013-09-23 17:32:00,67.3,51.1,29.99,WNW,302,2.0,7.0,56,0.00,,,0.00,meteohub,2013-09-23 21:32:00,
2013-09-23 17:37:00,67.5,50.7,29.99,WNW,302,3.0,7.0,55,0.00,,,0.00,meteohub,2013-09-23 21:37:00,
2013-09-23 17:42:00,67.3,50.0,29.99,NNW,348,5.0,9.0,54,0.00,,,0.00,meteohub,2013-09-23 21:42:00,
2013-09-23 17:47:00,66.9,49.3,29.99,North,10,2.0,9.0,53,0.00,,,0.00,meteohub,2013-09-23 21:47:00,
2013-09-23 17:52:00,66.9,48.7,29.99,NNW,348,3.0,8.0,52,0.00,,,0.00,meteohub,2013-09-23 21:52:00,
2013-09-23 17:57:00,66.6,50.4,29.99,SE,145,0.0,7.0,56,0.00,,,0.00,meteohub,2013-09-23 21:57:00,
2013-09-23 18:02:00,66.0,50.9,29.99,SW,235,4.0,6.0,58,0.00,,,0.00,meteohub,2013-09-23 22:02:00,
2013-09-23 18:07:00,65.5,50.4,29.99,ENE,78,0.0,6.0,58,0.00,,,0.00,meteohub,2013-09-23 22:07:00,
2013-09-23 18:12:00,65.3,51.1,29.99,South,190,4.0,6.0,60,0.00,,,0.00,meteohub,2013-09-23 22:12:00,
2013-09-23 18:17:00,64.8,50.5,29.99,West,280,0.0,6.0,60,0.00,,,0.00,meteohub,2013-09-23 22:17:00,
2013-09-23 18:22:00,64.6,50.9,29.99,SSW,212,0.0,6.0,61,0.00,,,0.00,meteohub,2013-09-23 22:22:00,
2013-09-23 18:27:00,64.4,51.1,29.99,SSE,168,4.0,5.0,62,0.00,,,0.00,meteohub,2013-09-23 22:27:00,
2013-09-23 18:32:00,63.9,51.1,29.99,NNW,348,0.0,5.0,63,0.00,,,0.00,meteohub,2013-09-23 22:32:00,
2013-09-23 18:37:00,63.5,50.7,29.99,SSE,168,3.0,6.0,63,0.00,,,0.00,meteohub,2013-09-23 22:37:00,
2013-09-23 18:42:00,63.3,50.5,29.99,SE,145,4.0,6.0,63,0.00,,,0.00,meteohub,2013-09-23 22:42:00,
2013-09-23 18:47:00,62.8,50.0,29.99,SSE,168,6.0,6.0,63,0.00,,,0.00,meteohub,2013-09-23 22:47:00,
2013-09-23 18:52:00,62.6,49.8,29.99,SSE,168,4.0,6.0,63,0.00,,,0.00,meteohub,2013-09-23 22:52:00,
2013-09-23 18:57:00,62.1,49.8,29.99,SSE,168,5.0,6.0,64,0.00,,,0.00,meteohub,2013-09-23 22:57:00,
2013-09-23 19:07:00,61.3,49.1,29.99,SE,145,4.0,6.0,64,0.00,,,0.00,meteohub,2013-09-23 23:07:00,
2013-09-23 19:12:00,61.0,48.7,29.99,SSE,168,6.0,6.0,64,0.00,,,0.00,meteohub,2013-09-23 23:12:00,
2013-09-23 19:17:00,60.4,48.6,29.99,ESE,122,4.0,6.0,65,0.00,,,0.00,meteohub,2013-09-23 23:17:00,
2013-09-23 19:22:00,60.3,48.4,29.99,SSE,168,5.0,6.0,65,0.00,,,0.00,meteohub,2013-09-23 23:22:00,
2013-09-23 19:27:00,59.9,48.2,29.99,SSE,168,4.0,6.0,65,0.00,,,0.00,meteohub,2013-09-23 23:27:00,
2013-09-23 19:32:00,59.7,48.4,29.99,SSE,168,5.0,6.0,66,0.00,,,0.00,meteohub,2013-09-23 23:32:00,
2013-09-23 19:37:00,59.4,48.0,29.99,SSE,168,5.0,6.0,66,0.00,,,0.00,meteohub,2013-09-23 23:37:00,
2013-09-23 19:42:00,59.0,47.7,29.99,SE,145,3.0,6.0,66,0.00,,,0.00,meteohub,2013-09-23 23:42:00,
2013-09-23 19:47:00,58.8,47.8,29.99,SE,145,3.0,5.0,67,0.00,,,0.00,meteohub,2013-09-23 23:47:00,
2013-09-23 19:52:00,58.8,48.4,29.99,SSE,168,3.0,5.0,68,0.00,,,0.00,meteohub,2013-09-23 23:52:00,
2013-09-23 20:02:00,58.3,47.8,30.01,SSE,168,5.0,6.0,68,0.00,,,0.00,meteohub,2013-09-24 00:02:00,
2013-09-23 20:07:00,58.1,47.7,30.01,ESE,122,0.0,6.0,68,0.00,,,0.00,meteohub,2013-09-24 00:07:00,
2013-09-23 20:12:00,57.9,47.5,30.01,ESE,122,0.0,6.0,68,0.00,,,0.00,meteohub,2013-09-24 00:12:00,
2013-09-23 20:17:00,57.4,46.9,30.01,ESE,122,0.0,5.0,68,0.00,,,0.00,meteohub,2013-09-24 00:17:00,
2013-09-23 20:22:00,57.2,46.8,30.01,ESE,122,0.0,0.0,68,0.00,,,0.00,meteohub,2013-09-24 00:22:00,
2013-09-23 20:27:00,57.0,46.9,30.01,ESE,122,0.0,3.0,69,0.00,,,0.00,meteohub,2013-09-24 00:27:00,
2013-09-23 20:32:00,56.8,47.1,30.01,ESE,122,0.0,3.0,70,0.00,,,0.00,meteohub,2013-09-24 00:32:00,
2013-09-23 20:37:00,56.7,46.9,30.01,SSE,168,4.0,4.0,70,0.00,,,0.00,meteohub,2013-09-24 00:37:00,
2013-09-23 20:42:00,56.5,46.8,30.01,South,190,0.0,4.0,70,0.00,,,0.00,meteohub,2013-09-24 00:42:00,
2013-09-23 20:47:00,56.1,46.4,30.01,SE,145,0.0,4.0,70,0.00,,,0.00,meteohub,2013-09-24 00:47:00,
2013-09-23 20:52:00,55.9,46.8,30.01,SSE,168,0.0,4.0,71,0.00,,,0.00,meteohub,2013-09-24 00:52:00,
2013-09-23 20:57:00,55.8,46.6,30.04,South,190,0.0,0.0,71,0.00,,,0.00,meteohub,2013-09-24 00:57:00,
2013-09-23 21:02:00,55.6,46.4,30.04,SSE,168,2.0,0.0,71,0.00,,,0.00,meteohub,2013-09-24 01:02:00,
2013-09-23 21:07:00,55.4,46.2,30.04,SE,145,0.0,3.0,71,0.00,,,0.00,meteohub,2013-09-24 01:07:00,
2013-09-23 21:12:00,55.0,46.2,30.04,SSW,212,0.0,3.0,72,0.00,,,0.00,meteohub,2013-09-24 01:12:00,
2013-09-23 21:17:00,54.9,46.4,30.04,SSE,168,0.0,2.0,73,0.00,,,0.00,meteohub,2013-09-24 01:17:00,
2013-09-23 21:22:00,54.7,46.2,30.04,SSE,168,0.0,0.0,73,0.00,,,0.00,meteohub,2013-09-24 01:22:00,
2013-09-23 21:27:00,54.5,46.0,30.04,SSE,168,0.0,0.0,73,0.00,,,0.00,meteohub,2013-09-24 01:27:00,
2013-09-23 21:32:00,54.1,45.7,30.04,SSE,168,0.0,0.0,73,0.00,,,0.00,meteohub,2013-09-24 01:32:00,
2013-09-23 21:37:00,54.0,45.5,30.04,SE,145,0.0,0.0,73,0.00,,,0.00,meteohub,2013-09-24 01:37:00,
2013-09-23 21:42:00,54.0,45.9,30.04,SE,145,0.0,0.0,74,0.00,,,0.00,meteohub,2013-09-24 01:42:00,
2013-09-23 21:47:00,53.8,45.7,30.04,SE,145,0.0,0.0,74,0.00,,,0.00,meteohub,2013-09-24 01:47:00,
2013-09-23 21:52:00,53.6,45.5,30.04,SE,145,0.0,0.0,74,0.00,,,0.00,meteohub,2013-09-24 01:52:00,
2013-09-23 21:57:00,53.2,45.1,30.04,ESE,122,0.0,0.0,74,0.00,,,0.00,meteohub,2013-09-24 01:57:00,
2013-09-23 22:02:00,53.2,45.5,30.04,ESE,122,0.0,0.0,75,0.00,,,0.00,meteohub,2013-09-24 02:02:00,
2013-09-23 22:07:00,53.1,45.3,30.04,SE,145,0.0,0.0,75,0.00,,,0.00,meteohub,2013-09-24 02:07:00,
2013-09-23 22:12:00,52.9,45.1,30.04,SE,145,0.0,0.0,75,0.00,,,0.00,meteohub,2013-09-24 02:12:00,
2013-09-23 22:17:00,52.7,45.0,30.04,SE,145,0.0,0.0,75,0.00,,,0.00,meteohub,2013-09-24 02:17:00,
2013-09-23 22:22:00,52.2,44.4,30.04,SE,145,0.0,0.0,75,0.00,,,0.00,meteohub,2013-09-24 02:22:00,
2013-09-23 22:27:00,52.2,44.4,30.04,SE,145,0.0,0.0,75,0.00,,,0.00,meteohub,2013-09-24 02:27:00,
2013-09-23 22:32:00,51.8,44.4,30.04,SE,145,0.0,0.0,76,0.00,,,0.00,meteohub,2013-09-24 02:32:00,
2013-09-23 22:37:00,51.8,44.4,30.04,SE,145,0.0,0.0,76,0.00,,,0.00,meteohub,2013-09-24 02:37:00,
2013-09-23 22:42:00,51.6,44.2,30.04,SE,145,0.0,0.0,76,0.00,,,0.00,meteohub,2013-09-24 02:42:00,
2013-09-23 22:47:00,51.3,43.9,30.04,SE,145,0.0,0.0,76,0.00,,,0.00,meteohub,2013-09-24 02:47:00,
2013-09-23 22:52:00,51.1,43.9,30.04,SE,145,0.0,0.0,76,0.00,,,0.00,meteohub,2013-09-24 02:52:00,
2013-09-23 22:57:00,50.9,43.7,30.04,SE,145,0.0,0.0,76,0.00,,,0.00,meteohub,2013-09-24 02:57:00,
2013-09-23 23:02:00,50.5,43.3,30.04,SSW,212,0.0,0.0,76,0.00,,,0.00,meteohub,2013-09-24 03:02:00,
2013-09-23 23:07:00,50.5,43.7,30.04,SSW,212,0.0,0.0,77,0.00,,,0.00,meteohub,2013-09-24 03:07:00,
2013-09-23 23:12:00,50.4,43.5,30.04,SSW,212,0.0,0.0,77,0.00,,,0.00,meteohub,2013-09-24 03:12:00,
2013-09-23 23:17:00,50.4,43.5,30.04,SSW,212,0.0,0.0,77,0.00,,,0.00,meteohub,2013-09-24 03:17:00,
2013-09-23 23:22:00,50.0,43.2,30.04,SSW,212,0.0,0.0,77,0.00,,,0.00,meteohub,2013-09-24 03:22:00,
2013-09-23 23:27:00,50.0,43.2,30.04,West,280,0.0,0.0,77,0.00,,,0.00,meteohub,2013-09-24 03:27:00,
2013-09-23 23:32:00,50.0,43.3,30.04,SW,235,0.0,0.0,78,0.00,,,0.00,meteohub,2013-09-24 03:32:00,
2013-09-23 23:37:00,50.0,43.7,30.04,NNW,348,0.0,0.0,79,0.00,,,0.00,meteohub,2013-09-24 03:37:00,
2013-09-23 23:42:00,49.8,43.5,30.04,NNW,348,0.0,0.0,79,0.00,,,0.00,meteohub,2013-09-24 03:42:00,
2013-09-23 23:47:00,49.8,43.9,30.04,East,100,0.0,0.0,80,0.00,,,0.00,meteohub,2013-09-24 03:47:00,
2013-09-23 23:52:00,49.6,44.1,30.04,East,100,0.0,0.0,81,0.00,,,0.00,meteohub,2013-09-24 03:52:00,
2013-09-23 23:57:00,49.6,44.1,30.04,East,100,0.0,0.0,81,0.00,,,0.00,meteohub,2013-09-24 03:57:00,